TimeEST,TemperatureF,Dew PointF,Humidity,Sea Level PressureIn,VisibilityMPH,Wind Direction,Wind SpeedMPH,Gust SpeedMPH,PrecipitationIn,Events,Conditions,WindDirDegrees,DateUTC
12:55 AM,30.2,26.6,86,29.91,10.0,WSW,6.9,-,N/A,,Overcast,240,2013-03-01 05:55:00
1:15 AM,30.2,26.6,86,29.91,10.0,WSW,6.9,-,N/A,,Overcast,240,2013-03-01 06:15:00
1:35 AM,30.2,26.6,86,29.90,10.0,WSW,4.6,-,N/A,,Overcast,240,2013-03-01 06:35:00
1:55 AM,30.2,26.6,86,29.90,10.0,WSW,5.8,-,N/A,,Overcast,240,2013-03-01 06:55:00
2:15 AM,30.2,26.6,86,29.90,10.0,Variable,3.5,-,N/A,,Overcast,0,2013-03-01 07:15:00
2:35 AM,30.2,26.6,86,29.90,10.0,WSW,5.8,-,N/A,,Overcast,240,2013-03-01 07:35:00
3:15 AM,30.2,26.6,86,29.89,10.0,SW,6.9,-,N/A,,Overcast,230,2013-03-01 08:15:00
3:35 AM,30.2,26.6,86,29.88,10.0,WSW,6.9,-,N/A,,Overcast,240,2013-03-01 08:35:00
4:15 AM,30.2,26.6,86,29.87,10.0,WSW,6.9,-,N/A,,Overcast,240,2013-03-01 09:15:00
4:55 AM,30.2,26.6,86,29.88,10.0,WSW,4.6,-,N/A,,Overcast,240,2013-03-01 09:55:00
5:15 AM,30.2,26.6,86,29.89,10.0,WSW,5.8,-,N/A,,Overcast,240,2013-03-01 10:15:00
5:35 AM,30.2,26.6,86,29.90,10.0,Variable,5.8,-,N/A,,Overcast,0,2013-03-01 10:35:00
6:15 AM,30.2,26.6,86,29.90,10.0,SW,4.6,-,N/A,,Overcast,230,2013-03-01 11:15:00
6:35 AM,30.2,26.6,86,29.90,10.0,WSW,3.5,-,N/A,,Overcast,240,2013-03-01 11:35:00
7:15 AM,32.0,26.6,80,29.89,10.0,WSW,3.5,-,N/A,,Overcast,250,2013-03-01 12:15:00
7:35 AM,30.2,26.6,86,29.89,10.0,West,3.5,-,N/A,,Overcast,260,2013-03-01 12:35:00
7:55 AM,30.2,26.6,86,29.90,10.0,WSW,4.6,-,N/A,,Overcast,250,2013-03-01 12:55:00
8:15 AM,30.2,28.4,93,29.91,10.0,WSW,5.8,-,N/A,,Overcast,240,2013-03-01 13:15:00
8:35 AM,32.0,28.4,87,29.91,10.0,WSW,5.8,-,N/A,,Overcast,250,2013-03-01 13:35:00
9:15 AM,32.0,28.4,87,29.91,10.0,WSW,4.6,-,N/A,,Overcast,240,2013-03-01 14:15:00
9:35 AM,32.0,28.4,87,29.91,10.0,SW,6.9,-,N/A,,Overcast,230,2013-03-01 14:35:00
10:15 AM,32.0,28.4,87,29.92,10.0,WSW,5.8,-,N/A,,Overcast,250,2013-03-01 15:15:00
10:35 AM,33.8,28.4,81,29.92,10.0,West,4.6,-,N/A,,Overcast,270,2013-03-01 15:35:00
10:55 AM,33.8,28.4,81,29.92,10.0,WSW,4.6,-,N/A,,Overcast,240,2013-03-01 15:55:00
11:15 AM,33.8,28.4,81,29.92,7.0,WSW,4.6,-,N/A,Rain,Light Rain,250,2013-03-01 16:15:00
11:35 AM,33.8,28.4,81,29.93,7.0,Variable,4.6,-,N/A,Rain,Light Rain,0,2013-03-01 16:35:00
11:55 AM,33.8,28.4,81,29.93,10.0,Variable,3.5,-,N/A,Rain,Light Rain,0,2013-03-01 16:55:00
12:15 PM,33.8,28.4,81,29.92,9.0,Variable,4.6,-,N/A,Rain,Light Rain,0,2013-03-01 17:15:00
12:35 PM,33.8,30.2,87,29.92,8.0,SW,6.9,-,N/A,Rain,Light Rain,230,2013-03-01 17:35:00
12:55 PM,33.8,28.4,81,29.92,6.0,West,6.9,-,N/A,Snow,Light Snow,280,2013-03-01 17:55:00
1:15 PM,33.8,30.2,87,29.91,5.0,WSW,8.1,-,N/A,Snow,Light Snow,250,2013-03-01 18:15:00
1:35 PM,33.8,30.2,87,29.90,6.0,Variable,5.8,-,N/A,Snow,Light Snow,0,2013-03-01 18:35:00
1:55 PM,35.6,30.2,81,29.89,10.0,WSW,9.2,-,N/A,,Overcast,240,2013-03-01 18:55:00
2:15 PM,35.6,32.0,87,29.88,8.0,SW,5.8,-,N/A,Snow,Light Snow,230,2013-03-01 19:15:00
2:35 PM,35.6,32.0,87,29.88,8.0,WSW,6.9,-,N/A,Rain,Light Rain,240,2013-03-01 19:35:00
2:55 PM,35.6,30.2,81,29.87,10.0,SW,11.5,-,N/A,,Overcast,230,2013-03-01 19:55:00
3:15 PM,33.8,30.2,87,29.88,4.0,WNW,4.6,-,N/A,Snow,Light Snow,300,2013-03-01 20:15:00
3:35 PM,35.6,30.2,81,29.87,10.0,NW,3.5,-,N/A,Rain,Light Rain,320,2013-03-01 20:35:00
4:15 PM,32.0,30.2,93,29.88,1.5,WNW,5.8,-,N/A,,Overcast,300,2013-03-01 21:15:00
4:35 PM,33.8,30.2,87,29.88,10.0,WNW,4.6,-,N/A,Rain,Light Rain,300,2013-03-01 21:35:00
4:55 PM,33.8,30.2,87,29.88,10.0,Calm,Calm,-,N/A,Rain,Light Rain,0,2013-03-01 21:55:00
5:15 PM,33.8,30.2,87,29.88,5.0,West,5.8,-,N/A,Rain,Light Rain,280,2013-03-01 22:15:00
5:35 PM,33.8,30.2,87,29.88,10.0,West,3.5,-,N/A,Rain,Light Rain,260,2013-03-01 22:35:00
5:55 PM,33.8,30.2,87,29.89,10.0,West,3.5,-,N/A,Rain,Light Rain,270,2013-03-01 22:55:00
6:15 PM,33.8,30.2,87,29.89,10.0,West,9.2,-,N/A,Rain,Light Rain,280,2013-03-01 23:15:00
7:15 PM,33.8,30.2,87,29.91,10.0,West,3.5,-,N/A,Rain,Light Rain,260,2013-03-02 00:15:00
7:35 PM,33.8,30.2,87,29.91,8.0,NW,4.6,-,N/A,Rain,Light Rain,310,2013-03-02 00:35:00
7:55 PM,32.0,30.2,93,29.91,10.0,WSW,3.5,-,N/A,Rain,Light Rain,250,2013-03-02 00:55:00
8:15 PM,33.8,30.2,87,29.92,10.0,West,4.6,-,N/A,Rain,Light Rain,280,2013-03-02 01:15:00
8:35 PM,33.8,30.2,87,29.91,10.0,West,4.6,-,N/A,Rain,Light Rain,270,2013-03-02 01:35:00
9:15 PM,33.8,30.2,87,29.91,10.0,West,3.5,-,N/A,Rain,Light Rain,260,2013-03-02 02:15:00
9:35 PM,33.8,30.2,87,29.91,9.0,West,4.6,-,N/A,Rain,Light Rain,270,2013-03-02 02:35:00
9:55 PM,33.8,30.2,87,29.92,10.0,WSW,4.6,-,N/A,,Mostly Cloudy,250,2013-03-02 02:55:00
10:15 PM,33.8,30.2,87,29.92,10.0,WSW,4.6,-,N/A,,Overcast,250,2013-03-02 03:15:00
10:35 PM,33.8,30.2,87,29.92,10.0,Calm,Calm,-,N/A,Rain,Light Rain,0,2013-03-02 03:35:00
10:55 PM,33.8,30.2,87,29.92,10.0,WSW,4.6,-,N/A,,Overcast,240,2013-03-02 03:55:00
11:15 PM,33.8,30.2,87,29.91,10.0,West,3.5,-,N/A,Rain,Light Rain,280,2013-03-02 04:15:00
11:35 PM,33.8,30.2,87,29.91,10.0,Calm,Calm,-,N/A,,Overcast,0,2013-03-02 04:35:00
11:55 PM,33.8,30.2,87,29.90,10.0,Calm,Calm,-,N/A,Rain,Light Rain,0,2013-03-02 04:55:00